Time,TemperatureF,DewpointF,PressureIn,WindDirection,WindDirectionDegrees,WindSpeedMPH,WindSpeedGustMPH,Humidity,HourlyPrecipIn,Conditions,Clouds,dailyrainin,SolarRadiationWatts/m^2,SoftwareType,DateUTC
2013-02-21 00:00:00,25.2,12.5,29.77,South,190,1.0,11.0,58,0.00,,,0.00,0.0,WUHU216DAVISWMX,2013-02-21 05:00:00,
2013-02-21 00:05:00,25.0,12.3,29.77,WSW,254,0.0,8.0,58,0.00,,,0.00,0.0,WUHU216DAVISWMX,2013-02-21 05:05:00,
2013-02-21 00:10:00,24.9,12.6,29.77,WNW,292,3.0,7.0,59,0.00,,,0.00,0.0,WUHU216DAVISWMX,2013-02-21 05:10:00,
2013-02-21 00:15:00,24.9,12.2,29.77,WNW,292,0.0,7.0,58,0.00,,,0.00,0.0,WUHU216DAVISWMX,2013-02-21 05:15:00,
2013-02-21 00:20:00,25.0,12.7,29.78,West,273,0.0,7.0,59,0.00,,,0.00,0.0,WUHU216DAVISWMX,2013-02-21 05:20:00,
2013-02-21 00:25:00,24.9,12.6,29.78,WNW,297,0.0,6.0,59,0.00,,,0.00,0.0,WUHU216DAVISWMX,2013-02-21 05:25:00,
2013-02-21 00:30:00,25.0,12.3,29.78,WNW,288,3.0,6.0,58,0.00,,,0.00,0.0,WUHU216DAVISWMX,2013-02-21 05:30:00,
2013-02-21 00:35:00,24.9,12.6,29.78,WSW,250,1.0,6.0,59,0.00,,,0.00,0.0,WUHU216DAVISWMX,2013-02-21 05:35:00,
2013-02-21 00:40:00,24.9,12.2,29.78,WNW,285,3.0,6.0,58,0.00,,,0.00,0.0,WUHU216DAVISWMX,2013-02-21 05:40:00,
2013-02-21 00:45:00,24.8,12.5,29.78,WNW,291,3.0,6.0,59,0.00,,,0.00,0.0,WUHU216DAVISWMX,2013-02-21 05:45:00,
2013-02-21 00:50:00,24.7,12.4,29.78,WNW,303,0.0,6.0,59,0.00,,,0.00,0.0,WUHU216DAVISWMX,2013-02-21 05:50:00,
2013-02-21 00:55:00,24.8,12.5,29.78,WNW,288,8.0,8.0,59,0.00,,,0.00,0.0,WUHU216DAVISWMX,2013-02-21 05:55:00,
2013-02-21 01:00:00,24.8,12.5,29.78,NW,309,0.0,8.0,59,0.00,,,0.00,0.0,WUHU216DAVISWMX,2013-02-21 06:00:00,
2013-02-21 01:05:00,24.7,12.4,29.78,WNW,302,2.0,6.0,59,0.00,,,0.00,0.0,WUHU216DAVISWMX,2013-02-21 06:05:00,
2013-02-21 01:10:00,24.5,12.2,29.78,NW,316,0.0,7.0,59,0.00,,,0.00,0.0,WUHU216DAVISWMX,2013-02-21 06:10:00,
2013-02-21 01:15:00,24.5,12.2,29.79,NW,308,0.0,7.0,59,0.00,,,0.00,0.0,WUHU216DAVISWMX,2013-02-21 06:15:00,
2013-02-21 01:20:00,24.4,12.1,29.79,NW,308,0.0,4.0,59,0.00,,,0.00,0.0,WUHU216DAVISWMX,2013-02-21 06:20:00,
2013-02-21 01:25:00,24.3,12.1,29.79,NW,307,0.0,4.0,59,0.00,,,0.00,0.0,WUHU216DAVISWMX,2013-02-21 06:25:00,
2013-02-21 01:30:00,24.1,12.2,29.79,WNW,302,0.0,3.0,60,0.00,,,0.00,0.0,WUHU216DAVISWMX,2013-02-21 06:30:00,
2013-02-21 01:35:00,23.9,12.1,29.78,WNW,299,0.0,5.0,60,0.00,,,0.00,0.0,WUHU216DAVISWMX,2013-02-21 06:35:00,
2013-02-21 01:40:00,23.8,12.0,29.78,WNW,296,0.0,5.0,60,0.00,,,0.00,0.0,WUHU216DAVISWMX,2013-02-21 06:40:00,
2013-02-21 01:45:00,23.9,12.1,29.78,West,268,0.0,10.0,60,0.00,,,0.00,0.0,WUHU216DAVISWMX,2013-02-21 06:45:00,
2013-02-21 01:50:00,24.0,12.2,29.78,West,281,3.0,10.0,60,0.00,,,0.00,0.0,WUHU216DAVISWMX,2013-02-21 06:50:00,
2013-02-21 01:55:00,24.1,11.9,29.78,West,271,0.0,6.0,59,0.00,,,0.00,0.0,WUHU216DAVISWMX,2013-02-21 06:55:00,
2013-02-21 02:00:00,24.1,11.9,29.78,NW,305,2.0,6.0,59,0.00,,,0.00,0.0,WUHU216DAVISWMX,2013-02-21 07:00:00,
2013-02-21 02:05:00,24.1,11.9,29.78,WNW,298,5.0,8.0,59,0.00,,,0.00,0.0,WUHU216DAVISWMX,2013-02-21 07:05:00,
2013-02-21 02:10:00,24.3,12.1,29.78,WNW,292,0.0,9.0,59,0.00,,,0.00,0.0,WUHU216DAVISWMX,2013-02-21 07:10:00,
2013-02-21 02:15:00,24.3,12.1,29.78,NW,308,5.0,9.0,59,0.00,,,0.00,0.0,WUHU216DAVISWMX,2013-02-21 07:15:00,
2013-02-21 02:20:00,24.4,11.8,29.78,WSW,257,3.0,10.0,58,0.00,,,0.00,0.0,WUHU216DAVISWMX,2013-02-21 07:20:00,
2013-02-21 02:25:00,24.4,11.8,29.78,West,277,0.0,10.0,58,0.00,,,0.00,0.0,WUHU216DAVISWMX,2013-02-21 07:25:00,
2013-02-21 02:30:00,24.2,12.0,29.78,WNW,283,4.0,4.0,59,0.00,,,0.00,0.0,WUHU216DAVISWMX,2013-02-21 07:30:00,
2013-02-21 02:35:00,24.3,11.7,29.78,NW,310,0.0,8.0,58,0.00,,,0.00,0.0,WUHU216DAVISWMX,2013-02-21 07:35:00,
2013-02-21 02:40:00,24.2,12.0,29.78,WNW,300,0.0,8.0,59,0.00,,,0.00,0.0,WUHU216DAVISWMX,2013-02-21 07:40:00,
2013-02-21 02:45:00,24.1,11.9,29.77,WNW,288,0.0,7.0,59,0.00,,,0.00,0.0,WUHU216DAVISWMX,2013-02-21 07:45:00,
2013-02-21 02:50:00,24.2,11.6,29.77,WNW,298,0.0,10.0,58,0.00,,,0.00,0.0,WUHU216DAVISWMX,2013-02-21 07:50:00,
2013-02-21 02:55:00,24.4,11.8,29.77,NW,307,0.0,10.0,58,0.00,,,0.00,0.0,WUHU216DAVISWMX,2013-02-21 07:55:00,
2013-02-21 03:00:00,24.3,11.7,29.77,NW,315,4.0,9.0,58,0.00,,,0.00,0.0,WUHU216DAVISWMX,2013-02-21 08:00:00,
2013-02-21 03:05:00,24.3,11.3,29.77,WNW,291,9.0,10.0,57,0.00,,,0.00,0.0,WUHU216DAVISWMX,2013-02-21 08:05:00,
2013-02-21 03:10:00,24.6,11.1,29.78,WNW,288,1.0,17.0,56,0.00,,,0.00,0.0,WUHU216DAVISWMX,2013-02-21 08:10:00,
2013-02-21 03:15:00,24.6,11.1,29.78,WNW,294,1.0,17.0,56,0.00,,,0.00,0.0,WUHU216DAVISWMX,2013-02-21 08:15:00,
2013-02-21 03:20:00,24.5,11.0,29.78,WNW,292,0.0,7.0,56,0.00,,,0.00,0.0,WUHU216DAVISWMX,2013-02-21 08:20:00,
2013-02-21 03:25:00,24.3,11.3,29.78,West,269,1.0,11.0,57,0.00,,,0.00,0.0,WUHU216DAVISWMX,2013-02-21 08:25:00,
2013-02-21 03:30:00,24.2,11.2,29.78,West,267,0.0,11.0,57,0.00,,,0.00,0.0,WUHU216DAVISWMX,2013-02-21 08:30:00,
2013-02-21 03:35:00,24.1,11.1,29.78,West,277,1.0,7.0,57,0.00,,,0.00,0.0,WUHU216DAVISWMX,2013-02-21 08:35:00,
2013-02-21 03:40:00,23.9,11.3,29.77,West,265,0.0,7.0,58,0.00,,,0.00,0.0,WUHU216DAVISWMX,2013-02-21 08:40:00,
2013-02-21 03:45:00,23.7,11.1,29.77,West,266,1.0,3.0,58,0.00,,,0.00,0.0,WUHU216DAVISWMX,2013-02-21 08:45:00,
2013-02-21 03:50:00,23.6,11.0,29.77,WSW,254,3.0,3.0,58,0.00,,,0.00,0.0,WUHU216DAVISWMX,2013-02-21 08:50:00,
2013-02-21 03:55:00,23.5,10.9,29.77,WSW,247,0.0,3.0,58,0.00,,,0.00,0.0,WUHU216DAVISWMX,2013-02-21 08:55:00,
2013-02-21 04:00:00,23.4,10.8,29.78,WNW,291,0.0,4.0,58,0.00,,,0.00,0.0,WUHU216DAVISWMX,2013-02-21 09:00:00,
2013-02-21 04:05:00,23.2,11.0,29.78,SW,224,0.0,4.0,59,0.00,,,0.00,0.0,WUHU216DAVISWMX,2013-02-21 09:05:00,
2013-02-21 04:10:00,23.1,11.3,29.78,SW,230,0.0,4.0,60,0.00,,,0.00,0.0,WUHU216DAVISWMX,2013-02-21 09:10:00,
2013-02-21 04:15:00,22.9,11.1,29.78,WNW,295,0.0,5.0,60,0.00,,,0.00,0.0,WUHU216DAVISWMX,2013-02-21 09:15:00,
2013-02-21 04:20:00,23.0,11.2,29.79,WSW,254,0.0,5.0,60,0.00,,,0.00,0.0,WUHU216DAVISWMX,2013-02-21 09:20:00,
2013-02-21 04:25:00,23.0,11.2,29.78,West,281,4.0,5.0,60,0.00,,,0.00,0.0,WUHU216DAVISWMX,2013-02-21 09:25:00,
2013-02-21 04:30:00,22.9,11.1,29.79,WNW,283,0.0,5.0,60,0.00,,,0.00,0.0,WUHU216DAVISWMX,2013-02-21 09:30:00,
2013-02-21 04:35:00,22.7,10.9,29.79,West,262,0.0,3.0,60,0.00,,,0.00,0.0,WUHU216DAVISWMX,2013-02-21 09:35:00,
2013-02-21 04:40:00,22.7,10.9,29.79,West,262,0.0,3.0,60,0.00,,,0.00,0.0,WUHU216DAVISWMX,2013-02-21 09:40:00,
2013-02-21 04:45:00,22.7,11.3,29.79,West,262,0.0,3.0,61,0.00,,,0.00,0.0,WUHU216DAVISWMX,2013-02-21 09:45:00,
2013-02-21 04:50:00,22.6,10.8,29.79,West,262,0.0,3.0,60,0.00,,,0.00,0.0,WUHU216DAVISWMX,2013-02-21 09:50:00,
2013-02-21 04:55:00,22.6,10.8,29.80,South,180,0.0,4.0,60,0.00,,,0.00,0.0,WUHU216DAVISWMX,2013-02-21 09:55:00,
2013-02-21 05:00:00,22.4,11.0,29.79,South,169,1.0,5.0,61,0.00,,,0.00,0.0,WUHU216DAVISWMX,2013-02-21 10:00:00,
2013-02-21 05:05:00,22.4,11.0,29.79,SW,219,1.0,5.0,61,0.00,,,0.00,0.0,WUHU216DAVISWMX,2013-02-21 10:05:00,
2013-02-21 05:10:00,22.4,11.0,29.80,SSW,192,0.0,5.0,61,0.00,,,0.00,0.0,WUHU216DAVISWMX,2013-02-21 10:10:00,
2013-02-21 05:15:00,22.4,11.0,29.79,SSW,194,5.0,5.0,61,0.00,,,0.00,0.0,WUHU216DAVISWMX,2013-02-21 10:15:00,
2013-02-21 05:20:00,22.4,11.0,29.80,SW,221,0.0,5.0,61,0.00,,,0.00,0.0,WUHU216DAVISWMX,2013-02-21 10:20:00,
2013-02-21 05:25:00,22.4,11.0,29.80,WNW,295,4.0,6.0,61,0.00,,,0.00,0.0,WUHU216DAVISWMX,2013-02-21 10:25:00,
2013-02-21 05:30:00,22.6,11.2,29.80,WSW,257,0.0,6.0,61,0.00,,,0.00,0.0,WUHU216DAVISWMX,2013-02-21 10:30:00,
2013-02-21 05:35:00,22.7,10.9,29.80,West,276,2.0,5.0,60,0.00,,,0.00,0.0,WUHU216DAVISWMX,2013-02-21 10:35:00,
2013-02-21 05:40:00,22.8,11.0,29.81,West,279,3.0,5.0,60,0.00,,,0.00,0.0,WUHU216DAVISWMX,2013-02-21 10:40:00,
2013-02-21 05:45:00,22.8,11.0,29.81,West,280,4.0,5.0,60,0.00,,,0.00,0.0,WUHU216DAVISWMX,2013-02-21 10:45:00,
2013-02-21 05:50:00,22.8,10.6,29.81,WNW,288,3.0,9.0,59,0.00,,,0.00,0.0,WUHU216DAVISWMX,2013-02-21 10:50:00,
2013-02-21 05:55:00,22.8,11.0,29.81,WNW,290,0.0,9.0,60,0.00,,,0.00,0.0,WUHU216DAVISWMX,2013-02-21 10:55:00,
2013-02-21 06:00:00,22.6,10.8,29.81,WNW,291,6.0,6.0,60,0.00,,,0.00,0.0,WUHU216DAVISWMX,2013-02-21 11:00:00,
2013-02-21 06:05:00,22.7,10.9,29.81,WNW,290,0.0,7.0,60,0.00,,,0.00,0.0,WUHU216DAVISWMX,2013-02-21 11:05:00,
2013-02-21 06:10:00,22.5,10.7,29.81,WNW,294,0.0,7.0,60,0.00,,,0.00,0.0,WUHU216DAVISWMX,2013-02-21 11:10:00,
2013-02-21 06:15:00,22.3,10.5,29.81,West,275,0.0,3.0,60,0.00,,,0.00,0.0,WUHU216DAVISWMX,2013-02-21 11:15:00,
2013-02-21 06:20:00,22.1,10.7,29.81,West,274,0.0,3.0,61,0.00,,,0.00,0.0,WUHU216DAVISWMX,2013-02-21 11:20:00,
2013-02-21 06:25:00,22.0,10.6,29.81,West,275,0.0,4.0,61,0.00,,,0.00,0.0,WUHU216DAVISWMX,2013-02-21 11:25:00,
2013-02-21 06:30:00,21.9,10.5,29.81,West,275,0.0,4.0,61,0.00,,,0.00,0.0,WUHU216DAVISWMX,2013-02-21 11:30:00,
2013-02-21 06:35:00,21.7,10.4,29.81,West,276,0.0,2.0,61,0.00,,,0.00,0.0,WUHU216DAVISWMX,2013-02-21 11:35:00,
2013-02-21 06:40:00,21.7,10.7,29.81,West,277,2.0,4.0,62,0.00,,,0.00,0.0,WUHU216DAVISWMX,2013-02-21 11:40:00,
2013-02-21 06:45:00,21.8,10.8,29.81,West,261,0.0,4.0,62,0.00,,,0.00,0.0,WUHU216DAVISWMX,2013-02-21 11:45:00,
2013-02-21 06:50:00,21.9,10.5,29.81,WSW,238,0.0,6.0,61,0.00,,,0.00,0.0,WUHU216DAVISWMX,2013-02-21 11:50:00,
2013-02-21 06:55:00,21.9,10.5,29.82,WNW,291,8.0,8.0,61,0.00,,,0.00,0.0,WUHU216DAVISWMX,2013-02-21 11:55:00,
2013-02-21 07:00:00,22.2,10.5,29.82,WNW,285,0.0,10.0,60,0.00,,,0.00,0.0,WUHU216DAVISWMX,2013-02-21 12:00:00,
2013-02-21 07:05:00,22.4,10.6,29.82,West,267,3.0,10.0,60,0.00,,,0.00,0.0,WUHU216DAVISWMX,2013-02-21 12:05:00,
2013-02-21 07:10:00,22.6,10.4,29.82,West,265,1.0,8.0,59,0.00,,,0.00,0.0,WUHU216DAVISWMX,2013-02-21 12:10:00,
2013-02-21 07:15:00,22.7,10.2,29.83,WNW,294,0.0,8.0,58,0.00,,,0.00,0.0,WUHU216DAVISWMX,2013-02-21 12:15:00,
2013-02-21 07:20:00,22.9,10.3,29.83,WNW,287,0.0,10.0,58,0.00,,,0.00,0.0,WUHU216DAVISWMX,2013-02-21 12:20:00,
2013-02-21 07:25:00,23.0,10.4,29.83,WNW,289,7.0,10.0,58,0.00,,,0.00,0.0,WUHU216DAVISWMX,2013-02-21 12:25:00,
2013-02-21 07:30:00,23.1,10.1,29.83,WNW,290,1.0,8.0,57,0.00,,,0.00,0.0,WUHU216DAVISWMX,2013-02-21 12:30:00,
2013-02-21 07:35:00,23.1,9.7,29.83,WNW,298,3.0,6.0,56,0.00,,,0.00,0.0,WUHU216DAVISWMX,2013-02-21 12:35:00,
2013-02-21 07:40:00,23.0,8.8,29.82,West,272,1.0,16.0,54,0.00,,,0.00,0.0,WUHU216DAVISWMX,2013-02-21 12:40:00,
2013-02-21 07:45:00,23.0,8.4,29.83,West,265,3.0,16.0,53,0.00,,,0.00,0.0,WUHU216DAVISWMX,2013-02-21 12:45:00,
2013-02-21 07:50:00,23.0,7.9,29.83,WNW,288,8.0,15.0,52,0.00,,,0.00,0.0,WUHU216DAVISWMX,2013-02-21 12:50:00,
2013-02-21 07:55:00,23.1,7.6,29.83,WNW,300,9.0,19.0,51,0.00,,,0.00,0.0,WUHU216DAVISWMX,2013-02-21 12:55:00,
2013-02-21 08:00:00,23.2,7.7,29.83,WNW,282,6.0,19.0,51,0.00,,,0.00,0.0,WUHU216DAVISWMX,2013-02-21 13:00:00,
2013-02-21 08:05:00,23.2,7.7,29.83,SE,138,0.0,14.0,51,0.00,,,0.00,0.0,WUHU216DAVISWMX,2013-02-21 13:05:00,
2013-02-21 08:10:00,23.2,7.2,29.83,West,273,0.0,14.0,50,0.00,,,0.00,0.0,WUHU216DAVISWMX,2013-02-21 13:10:00,
2013-02-21 08:15:00,23.2,7.2,29.83,NW,317,6.0,12.0,50,0.00,,,0.00,0.0,WUHU216DAVISWMX,2013-02-21 13:15:00,
2013-02-21 08:20:00,23.0,7.0,29.83,NNW,332,5.0,13.0,50,0.00,,,0.00,0.0,WUHU216DAVISWMX,2013-02-21 13:20:00,
2013-02-21 08:25:00,23.0,7.0,29.83,West,278,4.0,13.0,50,0.00,,,0.00,0.0,WUHU216DAVISWMX,2013-02-21 13:25:00,
2013-02-21 08:30:00,23.0,7.0,29.83,NNW,333,3.0,10.0,50,0.00,,,0.00,0.0,WUHU216DAVISWMX,2013-02-21 13:30:00,
2013-02-21 08:35:00,23.1,7.1,29.83,WNW,282,6.0,10.0,50,0.00,,,0.00,0.0,WUHU216DAVISWMX,2013-02-21 13:35:00,
2013-02-21 08:40:00,23.4,7.4,29.83,WNW,294,2.0,9.0,50,0.00,,,0.00,0.0,WUHU216DAVISWMX,2013-02-21 13:40:00,
2013-02-21 08:45:00,23.6,7.6,29.83,West,273,3.0,9.0,50,0.00,,,0.00,0.0,WUHU216DAVISWMX,2013-02-21 13:45:00,
2013-02-21 08:50:00,23.6,7.6,29.83,West,274,9.0,12.0,50,0.00,,,0.00,0.0,WUHU216DAVISWMX,2013-02-21 13:50:00,
2013-02-21 08:55:00,23.5,7.1,29.83,NW,316,5.0,13.0,49,0.00,,,0.00,0.0,WUHU216DAVISWMX,2013-02-21 13:55:00,
2013-02-21 09:00:00,23.6,7.1,29.83,WNW,285,7.0,15.0,49,0.00,,,0.00,0.0,WUHU216DAVISWMX,2013-02-21 14:00:00,
2013-02-21 09:05:00,23.6,7.1,29.83,NW,311,4.0,15.0,49,0.00,,,0.00,0.0,WUHU216DAVISWMX,2013-02-21 14:05:00,
2013-02-21 09:10:00,23.8,6.9,29.83,SW,236,1.0,13.0,48,0.00,,,0.00,0.0,WUHU216DAVISWMX,2013-02-21 14:10:00,
2013-02-21 09:15:00,23.7,7.2,29.83,WNW,285,1.0,14.0,49,0.00,,,0.00,0.0,WUHU216DAVISWMX,2013-02-21 14:15:00,
2013-02-21 09:20:00,23.9,7.4,29.82,WSW,256,4.0,14.0,49,0.00,,,0.00,0.0,WUHU216DAVISWMX,2013-02-21 14:20:00,
2013-02-21 09:25:00,24.3,7.8,29.82,WSW,244,2.0,13.0,49,0.00,,,0.00,0.0,WUHU216DAVISWMX,2013-02-21 14:25:00,
2013-02-21 09:30:00,24.6,7.6,29.83,NW,319,4.0,14.0,48,0.00,,,0.00,0.0,WUHU216DAVISWMX,2013-02-21 14:30:00,
2013-02-21 09:35:00,24.7,7.7,29.82,WNW,302,5.0,14.0,48,0.00,,,0.00,0.0,WUHU216DAVISWMX,2013-02-21 14:35:00,
2013-02-21 09:40:00,24.7,7.7,29.83,NW,317,5.0,14.0,48,0.00,,,0.00,0.0,WUHU216DAVISWMX,2013-02-21 14:40:00,
2013-02-21 09:45:00,24.8,7.8,29.83,WNW,302,5.0,15.0,48,0.00,,,0.00,0.0,WUHU216DAVISWMX,2013-02-21 14:45:00,
2013-02-21 09:50:00,25.1,8.1,29.83,WNW,290,11.0,16.0,48,0.00,,,0.00,0.0,WUHU216DAVISWMX,2013-02-21 14:50:00,
2013-02-21 09:55:00,25.0,7.5,29.83,WNW,302,5.0,16.0,47,0.00,,,0.00,0.0,WUHU216DAVISWMX,2013-02-21 14:55:00,
2013-02-21 10:00:00,25.1,8.1,29.83,WNW,297,5.0,16.0,48,0.00,,,0.00,0.0,WUHU216DAVISWMX,2013-02-21 15:00:00,
2013-02-21 10:05:00,25.4,8.3,29.83,WNW,293,0.0,16.0,48,0.00,,,0.00,0.0,WUHU216DAVISWMX,2013-02-21 15:05:00,
2013-02-21 10:10:00,25.6,8.5,29.83,WNW,284,7.0,15.0,48,0.00,,,0.00,0.0,WUHU216DAVISWMX,2013-02-21 15:10:00,
2013-02-21 10:15:00,25.5,7.9,29.83,WNW,293,11.0,15.0,47,0.00,,,0.00,0.0,WUHU216DAVISWMX,2013-02-21 15:15:00,
2013-02-21 10:20:00,25.5,7.5,29.83,NW,304,10.0,16.0,46,0.00,,,0.00,0.0,WUHU216DAVISWMX,2013-02-21 15:20:00,
2013-02-21 10:25:00,25.6,7.5,29.83,WNW,290,4.0,16.0,46,0.00,,,0.00,0.0,WUHU216DAVISWMX,2013-02-21 15:25:00,
2013-02-21 10:30:00,25.9,8.3,29.83,WNW,287,12.0,13.0,47,0.00,,,0.00,0.0,WUHU216DAVISWMX,2013-02-21 15:30:00,
2013-02-21 10:35:00,26.3,8.2,29.84,WNW,293,9.0,16.0,46,0.00,,,0.00,0.0,WUHU216DAVISWMX,2013-02-21 15:35:00,
2013-02-21 10:40:00,26.3,8.7,29.83,NNW,342,5.0,16.0,47,0.00,,,0.00,0.0,WUHU216DAVISWMX,2013-02-21 15:40:00,
2013-02-21 10:45:00,26.6,8.5,29.83,NW,309,7.0,11.0,46,0.00,,,0.00,0.0,WUHU216DAVISWMX,2013-02-21 15:45:00,
2013-02-21 10:50:00,26.7,8.6,29.83,NW,313,5.0,13.0,46,0.00,,,0.00,0.0,WUHU216DAVISWMX,2013-02-21 15:50:00,
2013-02-21 10:55:00,26.5,8.4,29.84,NNW,328,7.0,17.0,46,0.00,,,0.00,0.0,WUHU216DAVISWMX,2013-02-21 15:55:00,
2013-02-21 11:00:00,26.8,8.7,29.83,WNW,287,8.0,17.0,46,0.00,,,0.00,0.0,WUHU216DAVISWMX,2013-02-21 16:00:00,
2013-02-21 11:05:00,27.1,8.9,29.84,NW,317,7.0,12.0,46,0.00,,,0.00,0.0,WUHU216DAVISWMX,2013-02-21 16:05:00,
2013-02-21 11:10:00,27.2,8.5,29.83,NW,320,4.0,22.0,45,0.00,,,0.00,0.0,WUHU216DAVISWMX,2013-02-21 16:10:00,
2013-02-21 11:15:00,26.9,7.7,29.84,West,268,5.0,22.0,44,0.00,,,0.00,0.0,WUHU216DAVISWMX,2013-02-21 16:15:00,
2013-02-21 11:20:00,26.8,8.1,29.83,WNW,289,3.0,13.0,45,0.00,,,0.00,0.0,WUHU216DAVISWMX,2013-02-21 16:20:00,
2013-02-21 11:25:00,27.0,7.8,29.83,West,273,12.0,17.0,44,0.00,,,0.00,0.0,WUHU216DAVISWMX,2013-02-21 16:25:00,
2013-02-21 11:30:00,27.0,8.3,29.84,WSW,250,3.0,17.0,45,0.00,,,0.00,0.0,WUHU216DAVISWMX,2013-02-21 16:30:00,
2013-02-21 11:35:00,27.3,8.6,29.84,NW,316,8.0,13.0,45,0.00,,,0.00,0.0,WUHU216DAVISWMX,2013-02-21 16:35:00,
2013-02-21 11:40:00,27.2,8.0,29.84,NW,309,4.0,14.0,44,0.00,,,0.00,0.0,WUHU216DAVISWMX,2013-02-21 16:40:00,
2013-02-21 11:45:00,27.4,8.7,29.84,WNW,293,6.0,17.0,45,0.00,,,0.00,0.0,WUHU216DAVISWMX,2013-02-21 16:45:00,
2013-02-21 11:50:00,27.1,8.4,29.84,WNW,303,5.0,17.0,45,0.00,,,0.00,0.0,WUHU216DAVISWMX,2013-02-21 16:50:00,
2013-02-21 11:55:00,27.4,8.7,29.84,NW,309,13.0,17.0,45,0.00,,,0.00,0.0,WUHU216DAVISWMX,2013-02-21 16:55:00,
2013-02-21 12:00:00,27.2,8.5,29.84,WNW,293,4.0,17.0,45,0.00,,,0.00,0.0,WUHU216DAVISWMX,2013-02-21 17:00:00,
2013-02-21 12:05:00,27.3,9.1,29.84,WNW,294,4.0,14.0,46,0.00,,,0.00,0.0,WUHU216DAVISWMX,2013-02-21 17:05:00,
2013-02-21 12:10:00,27.5,9.3,29.84,West,275,5.0,13.0,46,0.00,,,0.00,0.0,WUHU216DAVISWMX,2013-02-21 17:10:00,
2013-02-21 12:15:00,27.5,9.3,29.84,West,277,5.0,16.0,46,0.00,,,0.00,0.0,WUHU216DAVISWMX,2013-02-21 17:15:00,
2013-02-21 12:20:00,27.4,9.2,29.84,NW,312,7.0,16.0,46,0.00,,,0.00,0.0,WUHU216DAVISWMX,2013-02-21 17:20:00,
2013-02-21 12:25:00,27.7,9.5,29.84,NNW,332,9.0,13.0,46,0.00,,,0.00,0.0,WUHU216DAVISWMX,2013-02-21 17:25:00,
2013-02-21 12:30:00,27.8,9.6,29.84,NW,307,7.0,15.0,46,0.00,,,0.00,0.0,WUHU216DAVISWMX,2013-02-21 17:30:00,
2013-02-21 12:35:00,28.0,9.8,29.84,NW,317,5.0,15.0,46,0.00,,,0.00,0.0,WUHU216DAVISWMX,2013-02-21 17:35:00,
2013-02-21 12:40:00,28.4,10.1,29.84,North,357,6.0,14.0,46,0.00,,,0.00,0.0,WUHU216DAVISWMX,2013-02-21 17:40:00,
2013-02-21 12:45:00,28.3,9.5,29.83,WNW,288,8.0,14.0,45,0.00,,,0.00,0.0,WUHU216DAVISWMX,2013-02-21 17:45:00,
2013-02-21 12:50:00,28.4,9.6,29.84,NW,326,7.0,14.0,45,0.00,,,0.00,0.0,WUHU216DAVISWMX,2013-02-21 17:50:00,
2013-02-21 12:55:00,28.4,9.6,29.84,WNW,298,12.0,16.0,45,0.00,,,0.00,0.0,WUHU216DAVISWMX,2013-02-21 17:55:00,
2013-02-21 13:00:00,28.0,9.8,29.85,WNW,293,14.0,21.0,46,0.00,,,0.00,0.0,WUHU216DAVISWMX,2013-02-21 18:00:00,
2013-02-21 13:05:00,27.9,9.7,29.84,NW,323,10.0,21.0,46,0.00,,,0.00,0.0,WUHU216DAVISWMX,2013-02-21 18:05:00,
2013-02-21 13:10:00,28.1,9.8,29.84,West,273,7.0,18.0,46,0.00,,,0.00,0.0,WUHU216DAVISWMX,2013-02-21 18:10:00,
2013-02-21 13:15:00,28.3,10.0,29.84,WNW,295,12.0,17.0,46,0.00,,,0.00,0.0,WUHU216DAVISWMX,2013-02-21 18:15:00,
2013-02-21 13:20:00,28.1,9.8,29.85,NW,310,1.0,17.0,46,0.00,,,0.00,0.0,WUHU216DAVISWMX,2013-02-21 18:20:00,
2013-02-21 13:25:00,28.4,10.1,29.84,NW,319,14.0,14.0,46,0.00,,,0.00,0.0,WUHU216DAVISWMX,2013-02-21 18:25:00,
2013-02-21 13:30:00,28.5,9.7,29.84,NNW,330,8.0,16.0,45,0.00,,,0.00,0.0,WUHU216DAVISWMX,2013-02-21 18:30:00,
2013-02-21 13:35:00,28.8,10.0,29.84,NNW,327,7.0,21.0,45,0.00,,,0.00,0.0,WUHU216DAVISWMX,2013-02-21 18:35:00,
2013-02-21 13:40:00,28.9,10.6,29.84,NW,326,6.0,21.0,46,0.00,,,0.00,0.0,WUHU216DAVISWMX,2013-02-21 18:40:00,
2013-02-21 13:45:00,29.0,10.7,29.84,NW,319,9.0,15.0,46,0.00,,,0.00,0.0,WUHU216DAVISWMX,2013-02-21 18:45:00,
2013-02-21 13:50:00,29.2,10.9,29.84,NW,322,4.0,15.0,46,0.00,,,0.00,0.0,WUHU216DAVISWMX,2013-02-21 18:50:00,
2013-02-21 13:55:00,29.0,10.2,29.84,NW,318,3.0,16.0,45,0.00,,,0.00,0.0,WUHU216DAVISWMX,2013-02-21 18:55:00,
2013-02-21 14:00:00,29.0,10.7,29.85,NW,314,10.0,16.0,46,0.00,,,0.00,0.0,WUHU216DAVISWMX,2013-02-21 19:00:00,
2013-02-21 14:05:00,29.1,10.8,29.84,NW,314,6.0,14.0,46,0.00,,,0.00,0.0,WUHU216DAVISWMX,2013-02-21 19:05:00,
2013-02-21 14:10:00,29.5,10.6,29.84,WNW,285,11.0,20.0,45,0.00,,,0.00,0.0,WUHU216DAVISWMX,2013-02-21 19:10:00,
2013-02-21 14:15:00,29.8,11.4,29.85,WNW,294,5.0,20.0,46,0.00,,,0.00,0.0,WUHU216DAVISWMX,2013-02-21 19:15:00,
2013-02-21 14:20:00,30.0,11.1,29.85,WNW,301,5.0,14.0,45,0.00,,,0.00,0.0,WUHU216DAVISWMX,2013-02-21 19:20:00,
2013-02-21 14:25:00,30.0,12.1,29.85,NW,325,5.0,17.0,47,0.00,,,0.00,0.0,WUHU216DAVISWMX,2013-02-21 19:25:00,
2013-02-21 14:30:00,29.8,11.4,29.86,WNW,283,9.0,17.0,46,0.00,,,0.00,0.0,WUHU216DAVISWMX,2013-02-21 19:30:00,
2013-02-21 14:35:00,29.8,11.4,29.86,WNW,291,6.0,14.0,46,0.00,,,0.00,0.0,WUHU216DAVISWMX,2013-02-21 19:35:00,
2013-02-21 14:40:00,29.8,11.4,29.86,WNW,292,5.0,18.0,46,0.00,,,0.00,0.0,WUHU216DAVISWMX,2013-02-21 19:40:00,
2013-02-21 14:45:00,30.0,12.1,29.86,WNW,288,9.0,18.0,47,0.00,,,0.00,0.0,WUHU216DAVISWMX,2013-02-21 19:45:00,
2013-02-21 14:50:00,30.0,12.6,29.86,NW,323,9.0,18.0,48,0.00,,,0.00,0.0,WUHU216DAVISWMX,2013-02-21 19:50:00,
2013-02-21 14:55:00,30.1,12.2,29.86,NW,322,5.0,18.0,47,0.00,,,0.00,0.0,WUHU216DAVISWMX,2013-02-21 19:55:00,
2013-02-21 15:00:00,30.2,12.3,29.86,NW,305,1.0,16.0,47,0.00,,,0.00,0.0,WUHU216DAVISWMX,2013-02-21 20:00:00,
2013-02-21 15:05:00,30.3,12.4,29.87,NNW,332,4.0,13.0,47,0.00,,,0.00,0.0,WUHU216DAVISWMX,2013-02-21 20:05:00,
2013-02-21 15:10:00,30.4,12.5,29.87,WNW,291,4.0,13.0,47,0.00,,,0.00,0.0,WUHU216DAVISWMX,2013-02-21 20:10:00,
2013-02-21 15:15:00,30.4,12.9,29.87,WNW,302,12.0,13.0,48,0.00,,,0.00,0.0,WUHU216DAVISWMX,2013-02-21 20:15:00,
2013-02-21 15:20:00,30.2,12.3,29.88,NW,324,9.0,18.0,47,0.00,,,0.00,0.0,WUHU216DAVISWMX,2013-02-21 20:20:00,
2013-02-21 15:25:00,30.0,12.6,29.88,WNW,297,4.0,18.0,48,0.00,,,0.00,0.0,WUHU216DAVISWMX,2013-02-21 20:25:00,
2013-02-21 15:30:00,29.9,12.5,29.88,WNW,299,9.0,16.0,48,0.00,,,0.00,0.0,WUHU216DAVISWMX,2013-02-21 20:30:00,
2013-02-21 15:35:00,29.8,12.9,29.88,NW,314,16.0,16.0,49,0.00,,,0.00,0.0,WUHU216DAVISWMX,2013-02-21 20:35:00,
2013-02-21 15:40:00,29.7,12.8,29.89,WNW,287,6.0,19.0,49,0.00,,,0.00,0.0,WUHU216DAVISWMX,2013-02-21 20:40:00,
2013-02-21 15:45:00,29.8,12.9,29.89,NW,315,5.0,19.0,49,0.00,,,0.00,0.0,WUHU216DAVISWMX,2013-02-21 20:45:00,
2013-02-21 15:50:00,29.6,12.7,29.89,NW,325,5.0,23.0,49,0.00,,,0.00,0.0,WUHU216DAVISWMX,2013-02-21 20:50:00,
2013-02-21 15:55:00,29.5,12.6,29.90,NW,320,9.0,23.0,49,0.00,,,0.00,0.0,WUHU216DAVISWMX,2013-02-21 20:55:00,
2013-02-21 16:00:00,29.4,12.5,29.91,WNW,300,15.0,19.0,49,0.00,,,0.00,0.0,WUHU216DAVISWMX,2013-02-21 21:00:00,
2013-02-21 16:05:00,29.3,12.4,29.91,WNW,290,16.0,19.0,49,0.00,,,0.00,0.0,WUHU216DAVISWMX,2013-02-21 21:05:00,
2013-02-21 16:10:00,29.3,12.4,29.91,NW,305,6.0,18.0,49,0.00,,,0.00,0.0,WUHU216DAVISWMX,2013-02-21 21:10:00,
2013-02-21 16:15:00,29.3,12.4,29.92,WNW,290,5.0,14.0,49,0.00,,,0.00,0.0,WUHU216DAVISWMX,2013-02-21 21:15:00,
2013-02-21 16:20:00,29.1,12.2,29.92,WNW,301,9.0,19.0,49,0.00,,,0.00,0.0,WUHU216DAVISWMX,2013-02-21 21:20:00,
2013-02-21 16:25:00,28.9,12.5,29.92,NW,318,5.0,19.0,50,0.00,,,0.00,0.0,WUHU216DAVISWMX,2013-02-21 21:25:00,
2013-02-21 16:30:00,28.6,12.2,29.93,NNW,329,4.0,18.0,50,0.00,,,0.00,0.0,WUHU216DAVISWMX,2013-02-21 21:30:00,
2013-02-21 16:35:00,28.4,12.5,29.93,NW,306,6.0,18.0,51,0.00,,,0.00,0.0,WUHU216DAVISWMX,2013-02-21 21:35:00,
2013-02-21 16:40:00,28.2,12.3,29.93,WNW,282,11.0,18.0,51,0.00,,,0.00,0.0,WUHU216DAVISWMX,2013-02-21 21:40:00,
2013-02-21 16:45:00,28.0,12.1,29.93,WNW,300,7.0,17.0,51,0.00,,,0.00,0.0,WUHU216DAVISWMX,2013-02-21 21:45:00,
2013-02-21 16:50:00,27.9,12.5,29.94,NW,324,2.0,17.0,52,0.00,,,0.00,0.0,WUHU216DAVISWMX,2013-02-21 21:50:00,
2013-02-21 16:55:00,27.8,12.4,29.94,West,275,9.0,13.0,52,0.00,,,0.00,0.0,WUHU216DAVISWMX,2013-02-21 21:55:00,
2013-02-21 17:00:00,27.7,12.3,29.95,NW,321,6.0,21.0,52,0.00,,,0.00,0.0,WUHU216DAVISWMX,2013-02-21 22:00:00,
2013-02-21 17:05:00,27.5,12.1,29.95,NW,326,7.0,21.0,52,0.00,,,0.00,0.0,WUHU216DAVISWMX,2013-02-21 22:05:00,
2013-02-21 17:10:00,27.4,12.0,29.96,NW,324,5.0,18.0,52,0.00,,,0.00,0.0,WUHU216DAVISWMX,2013-02-21 22:10:00,
2013-02-21 17:15:00,27.2,12.3,29.97,WNW,303,17.0,17.0,53,0.00,,,0.00,0.0,WUHU216DAVISWMX,2013-02-21 22:15:00,
2013-02-21 17:20:00,27.2,11.8,29.97,WNW,302,13.0,20.0,52,0.00,,,0.00,0.0,WUHU216DAVISWMX,2013-02-21 22:20:00,
2013-02-21 17:25:00,27.1,12.2,29.97,NW,312,8.0,21.0,53,0.00,,,0.00,0.0,WUHU216DAVISWMX,2013-02-21 22:25:00,
2013-02-21 17:30:00,26.8,11.9,29.98,NW,321,12.0,21.0,53,0.00,,,0.00,0.0,WUHU216DAVISWMX,2013-02-21 22:30:00,
2013-02-21 17:35:00,26.7,11.8,29.98,WNW,288,7.0,14.0,53,0.00,,,0.00,0.0,WUHU216DAVISWMX,2013-02-21 22:35:00,
2013-02-21 17:40:00,26.6,12.2,29.98,NW,313,5.0,17.0,54,0.00,,,0.00,0.0,WUHU216DAVISWMX,2013-02-21 22:40:00,
2013-02-21 17:45:00,26.4,12.0,29.99,WNW,301,6.0,18.0,54,0.00,,,0.00,0.0,WUHU216DAVISWMX,2013-02-21 22:45:00,
2013-02-21 17:50:00,26.2,11.8,30.00,WNW,297,13.0,19.0,54,0.00,,,0.00,0.0,WUHU216DAVISWMX,2013-02-21 22:50:00,
2013-02-21 17:55:00,26.1,11.7,30.00,NNW,346,7.0,19.0,54,0.00,,,0.00,0.0,WUHU216DAVISWMX,2013-02-21 22:55:00,
2013-02-21 18:00:00,26.0,12.0,30.00,NNW,333,2.0,13.0,55,0.00,,,0.00,0.0,WUHU216DAVISWMX,2013-02-21 23:00:00,
2013-02-21 18:05:00,25.8,11.8,30.01,WNW,286,8.0,15.0,55,0.00,,,0.00,0.0,WUHU216DAVISWMX,2013-02-21 23:05:00,
2013-02-21 18:10:00,25.6,11.7,30.01,NNW,332,3.0,15.0,55,0.00,,,0.00,0.0,WUHU216DAVISWMX,2013-02-21 23:10:00,
2013-02-21 18:15:00,25.5,11.6,30.02,NW,305,15.0,15.0,55,0.00,,,0.00,0.0,WUHU216DAVISWMX,2013-02-21 23:15:00,
2013-02-21 18:20:00,25.4,11.5,30.02,NW,319,7.0,15.0,55,0.00,,,0.00,0.0,WUHU216DAVISWMX,2013-02-21 23:20:00,
2013-02-21 18:25:00,25.3,11.8,30.02,WNW,293,7.0,17.0,56,0.00,,,0.00,0.0,WUHU216DAVISWMX,2013-02-21 23:25:00,
2013-02-21 18:30:00,25.3,11.8,30.03,NW,319,2.0,17.0,56,0.00,,,0.00,0.0,WUHU216DAVISWMX,2013-02-21 23:30:00,
2013-02-21 18:35:00,25.1,11.6,30.03,WNW,295,8.0,16.0,56,0.00,,,0.00,0.0,WUHU216DAVISWMX,2013-02-21 23:35:00,
2013-02-21 18:40:00,25.1,11.6,30.04,NW,325,1.0,13.0,56,0.00,,,0.00,0.0,WUHU216DAVISWMX,2013-02-21 23:40:00,
2013-02-21 18:45:00,25.0,11.9,30.04,NW,317,6.0,12.0,57,0.00,,,0.00,0.0,WUHU216DAVISWMX,2013-02-21 23:45:00,
2013-02-21 18:50:00,24.9,11.8,30.04,WNW,297,7.0,14.0,57,0.00,,,0.00,0.0,WUHU216DAVISWMX,2013-02-21 23:50:00,
2013-02-21 18:55:00,24.8,11.7,30.05,NW,309,13.0,17.0,57,0.00,,,0.00,0.0,WUHU216DAVISWMX,2013-02-21 23:55:00,
2013-02-21 19:00:00,24.8,12.1,30.05,NW,312,8.0,17.0,58,0.00,,,0.00,0.0,WUHU216DAVISWMX,2013-02-22 00:00:00,
2013-02-21 19:05:00,24.7,12.0,30.06,West,279,7.0,15.0,58,0.00,,,0.00,0.0,WUHU216DAVISWMX,2013-02-22 00:05:00,
2013-02-21 19:10:00,24.5,11.8,30.06,NNW,332,0.0,15.0,58,0.00,,,0.00,0.0,WUHU216DAVISWMX,2013-02-22 00:10:00,
2013-02-21 19:15:00,24.5,12.2,30.07,WNW,292,8.0,15.0,59,0.00,,,0.00,0.0,WUHU216DAVISWMX,2013-02-22 00:15:00,
2013-02-21 19:20:00,24.5,12.2,30.07,NW,319,3.0,16.0,59,0.00,,,0.00,0.0,WUHU216DAVISWMX,2013-02-22 00:20:00,
2013-02-21 19:25:00,24.4,12.1,30.07,NW,315,7.0,16.0,59,0.00,,,0.00,0.0,WUHU216DAVISWMX,2013-02-22 00:25:00,
2013-02-21 19:30:00,24.3,12.4,30.08,NW,317,13.0,13.0,60,0.00,,,0.00,0.0,WUHU216DAVISWMX,2013-02-22 00:30:00,
2013-02-21 19:35:00,24.2,12.3,30.07,NW,312,1.0,13.0,60,0.00,,,0.00,0.0,WUHU216DAVISWMX,2013-02-22 00:35:00,
2013-02-21 19:40:00,24.1,12.2,30.08,NW,307,13.0,13.0,60,0.00,,,0.00,0.0,WUHU216DAVISWMX,2013-02-22 00:40:00,
2013-02-21 19:45:00,24.2,12.3,30.08,WNW,296,9.0,14.0,60,0.00,,,0.00,0.0,WUHU216DAVISWMX,2013-02-22 00:45:00,
2013-02-21 19:50:00,24.1,12.6,30.08,WNW,301,2.0,16.0,61,0.00,,,0.00,0.0,WUHU216DAVISWMX,2013-02-22 00:50:00,
2013-02-21 19:55:00,24.1,12.6,30.08,West,277,4.0,16.0,61,0.00,,,0.00,0.0,WUHU216DAVISWMX,2013-02-22 00:55:00,
2013-02-21 20:00:00,24.1,12.6,30.08,NW,323,7.0,11.0,61,0.00,,,0.00,0.0,WUHU216DAVISWMX,2013-02-22 01:00:00,
2013-02-21 20:05:00,24.0,12.9,30.08,NW,316,6.0,13.0,62,0.00,,,0.00,0.0,WUHU216DAVISWMX,2013-02-22 01:05:00,
2013-02-21 20:10:00,24.0,12.9,30.09,NW,321,6.0,14.0,62,0.00,,,0.00,0.0,WUHU216DAVISWMX,2013-02-22 01:10:00,
2013-02-21 20:15:00,24.0,12.9,30.09,NW,311,3.0,14.0,62,0.00,,,0.00,0.0,WUHU216DAVISWMX,2013-02-22 01:15:00,
2013-02-21 20:20:00,24.0,12.9,30.10,North,5,0.0,18.0,62,0.00,,,0.00,0.0,WUHU216DAVISWMX,2013-02-22 01:20:00,
2013-02-21 20:25:00,23.9,12.8,30.10,NW,316,4.0,18.0,62,0.00,,,0.00,0.0,WUHU216DAVISWMX,2013-02-22 01:25:00,
2013-02-21 20:30:00,24.0,12.9,30.11,NW,319,4.0,14.0,62,0.00,,,0.00,0.0,WUHU216DAVISWMX,2013-02-22 01:30:00,
2013-02-21 20:35:00,24.0,13.3,30.11,NNW,328,4.0,14.0,63,0.00,,,0.00,0.0,WUHU216DAVISWMX,2013-02-22 01:35:00,
2013-02-21 20:40:00,23.9,13.2,30.11,NW,318,2.0,14.0,63,0.00,,,0.00,0.0,WUHU216DAVISWMX,2013-02-22 01:40:00,
2013-02-21 20:45:00,23.8,13.1,30.11,WNW,301,1.0,10.0,63,0.00,,,0.00,0.0,WUHU216DAVISWMX,2013-02-22 01:45:00,
2013-02-21 20:50:00,23.9,13.5,30.11,NNW,340,5.0,11.0,64,0.00,,,0.00,0.0,WUHU216DAVISWMX,2013-02-22 01:50:00,
2013-02-21 20:55:00,23.8,13.4,30.12,NW,309,2.0,11.0,64,0.00,,,0.00,0.0,WUHU216DAVISWMX,2013-02-22 01:55:00,
2013-02-21 21:00:00,23.9,13.5,30.12,NW,314,3.0,10.0,64,0.00,,,0.00,0.0,WUHU216DAVISWMX,2013-02-22 02:00:00,
2013-02-21 21:05:00,23.8,13.4,30.12,NW,307,4.0,10.0,64,0.00,,,0.00,0.0,WUHU216DAVISWMX,2013-02-22 02:05:00,
2013-02-21 21:10:00,23.9,13.5,30.12,WNW,289,4.0,10.0,64,0.00,,,0.00,0.0,WUHU216DAVISWMX,2013-02-22 02:10:00,
2013-02-21 21:15:00,23.9,13.5,30.13,NW,316,1.0,10.0,64,0.00,,,0.00,0.0,WUHU216DAVISWMX,2013-02-22 02:15:00,
2013-02-21 21:20:00,24.0,13.6,30.12,NW,325,9.0,12.0,64,0.00,,,0.00,0.0,WUHU216DAVISWMX,2013-02-22 02:20:00,
2013-02-21 21:25:00,24.1,14.1,30.13,WNW,299,3.0,12.0,65,0.00,,,0.00,0.0,WUHU216DAVISWMX,2013-02-22 02:25:00,
2013-02-21 21:30:00,24.0,14.0,30.13,WNW,298,5.0,12.0,65,0.00,,,0.00,0.0,WUHU216DAVISWMX,2013-02-22 02:30:00,
2013-02-21 21:35:00,24.0,14.0,30.13,WNW,301,9.0,9.0,65,0.00,,,0.00,0.0,WUHU216DAVISWMX,2013-02-22 02:35:00,
2013-02-21 21:40:00,24.0,14.0,30.13,WNW,294,0.0,9.0,65,0.00,,,0.00,0.0,WUHU216DAVISWMX,2013-02-22 02:40:00,
2013-02-21 21:45:00,23.9,13.9,30.13,NNW,335,1.0,9.0,65,0.00,,,0.00,0.0,WUHU216DAVISWMX,2013-02-22 02:45:00,
2013-02-21 21:50:00,23.9,13.9,30.14,NW,317,3.0,8.0,65,0.00,,,0.00,0.0,WUHU216DAVISWMX,2013-02-22 02:50:00,
2013-02-21 21:55:00,23.8,13.8,30.13,NW,324,5.0,7.0,65,0.00,,,0.00,0.0,WUHU216DAVISWMX,2013-02-22 02:55:00,
2013-02-21 22:00:00,23.7,14.1,30.14,NW,306,1.0,7.0,66,0.00,,,0.00,0.0,WUHU216DAVISWMX,2013-02-22 03:00:00,
2013-02-21 22:05:00,23.7,14.1,30.14,NW,326,2.0,7.0,66,0.00,,,0.00,0.0,WUHU216DAVISWMX,2013-02-22 03:05:00,
2013-02-21 22:10:00,23.7,14.1,30.14,WNW,290,3.0,6.0,66,0.00,,,0.00,0.0,WUHU216DAVISWMX,2013-02-22 03:10:00,
2013-02-21 22:15:00,23.7,14.1,30.14,NNW,347,2.0,6.0,66,0.00,,,0.00,0.0,WUHU216DAVISWMX,2013-02-22 03:15:00,
2013-02-21 22:20:00,23.6,14.3,30.14,NW,311,0.0,6.0,67,0.00,,,0.00,0.0,WUHU216DAVISWMX,2013-02-22 03:20:00,
2013-02-21 22:25:00,23.5,14.2,30.14,NW,311,2.0,6.0,67,0.00,,,0.00,0.0,WUHU216DAVISWMX,2013-02-22 03:25:00,
2013-02-21 22:30:00,23.5,14.2,30.14,NW,312,4.0,4.0,67,0.00,,,0.00,0.0,WUHU216DAVISWMX,2013-02-22 03:30:00,
2013-02-21 22:35:00,23.4,14.1,30.14,NW,304,5.0,11.0,67,0.00,,,0.00,0.0,WUHU216DAVISWMX,2013-02-22 03:35:00,
2013-02-21 22:40:00,23.5,14.2,30.15,WNW,289,4.0,11.0,67,0.00,,,0.00,0.0,WUHU216DAVISWMX,2013-02-22 03:40:00,
2013-02-21 22:45:00,23.6,14.3,30.16,NW,308,0.0,8.0,67,0.00,,,0.00,0.0,WUHU216DAVISWMX,2013-02-22 03:45:00,
2013-02-21 22:50:00,23.5,14.2,30.16,NW,304,1.0,6.0,67,0.00,,,0.00,0.0,WUHU216DAVISWMX,2013-02-22 03:50:00,
2013-02-21 22:55:00,23.5,14.2,30.17,NW,304,2.0,5.0,67,0.00,,,0.00,0.0,WUHU216DAVISWMX,2013-02-22 03:55:00,
2013-02-21 23:00:00,23.4,14.1,30.17,NW,305,5.0,5.0,67,0.00,,,0.00,0.0,WUHU216DAVISWMX,2013-02-22 04:00:00,
2013-02-21 23:05:00,23.4,14.4,30.18,NW,304,3.0,5.0,68,0.00,,,0.00,0.0,WUHU216DAVISWMX,2013-02-22 04:05:00,
2013-02-21 23:10:00,23.4,14.4,30.18,NW,326,3.0,8.0,68,0.00,,,0.00,0.0,WUHU216DAVISWMX,2013-02-22 04:10:00,
2013-02-21 23:15:00,23.5,14.5,30.17,NW,316,3.0,8.0,68,0.00,,,0.00,0.0,WUHU216DAVISWMX,2013-02-22 04:15:00,
2013-02-21 23:20:00,23.5,14.5,30.18,WNW,300,5.0,7.0,68,0.00,,,0.00,0.0,WUHU216DAVISWMX,2013-02-22 04:20:00,
2013-02-21 23:25:00,23.6,14.6,30.19,NW,305,6.0,10.0,68,0.00,,,0.00,0.0,WUHU216DAVISWMX,2013-02-22 04:25:00,
2013-02-21 23:30:00,23.6,14.6,30.19,WNW,293,4.0,10.0,68,0.00,,,0.00,0.0,WUHU216DAVISWMX,2013-02-22 04:30:00,
2013-02-21 23:35:00,23.5,14.5,30.19,NW,310,3.0,5.0,68,0.00,,,0.00,0.0,WUHU216DAVISWMX,2013-02-22 04:35:00,
2013-02-21 23:40:00,23.5,14.5,30.20,NW,309,4.0,5.0,68,0.00,,,0.00,0.0,WUHU216DAVISWMX,2013-02-22 04:40:00,
2013-02-21 23:45:00,23.4,14.4,30.20,NW,307,0.0,6.0,68,0.00,,,0.00,0.0,WUHU216DAVISWMX,2013-02-22 04:45:00,
2013-02-21 23:50:00,23.5,14.5,30.21,WNW,300,1.0,7.0,68,0.00,,,0.00,0.0,WUHU216DAVISWMX,2013-02-22 04:50:00,
2013-02-21 23:55:00,23.6,15.0,30.22,WNW,292,3.0,7.0,69,0.00,,,0.00,0.0,WUHU216DAVISWMX,2013-02-22 04:55:00,